Terminal Aerodrome Forecast
Issued by NWS

Home | Current Version | Previous Version | Graphics & Text | Print | Product List | Glossary On
Versions: 1 2 3 4 5 6 7 8 9 10 11 12 13 14 15 16 17 18 19 20
000
FTUS43 KGRB 251000 AAA
TAFAUW
TAF AMD
KAUW 251026Z 2510/2606 06011G17KT P6SM BKN020 OVC040
     FM251500 05010KT P6SM SCT018 SCT025
     FM252200 03006KT P6SM SCT200=

USA.gov is the U.S. government's official web portal to all federal, state and local government web resources and services.